This is the latest recevied weather packets stored in our database for station/object KC8QDR-1. If no packets are shown the sender has not sent any weather packets the latest 10 day(s).
| Time | Temp. | Humidity | Pressure | Rain* | Wind** | Luminosity | Snow |
|---|---|---|---|---|---|---|---|
| 1777855124 | 13.33° C | 51% | 1017.5 hPa | 0 mm | 1.79 m/s, 218° | - | - |
| 1777854524 | 13.33° C | 51% | 1017.9 hPa | 0 mm | 0.89 m/s, 206° | - | - |
| 1777853925 | 13.33° C | 51% | 1018.2 hPa | 0 mm | 1.79 m/s, 182° | - | - |
| 1777853324 | 13.89° C | 49% | 1018.2 hPa | 0 mm | 0 m/s | - | - |
| 1777852725 | 13.89° C | 48% | 1018.2 hPa | 0 mm | 2.24 m/s, 196° | - | - |
| 1777852124 | 13.89° C | 49% | 1018.1 hPa | 0 mm | 1.34 m/s, 196° | - | - |
| 1777851524 | 14.44° C | 47% | 1018.3 hPa | 0 mm | 0.89 m/s, 196° | - | - |
| 1777850924 | 14.44° C | 46% | 1018.2 hPa | 0 mm | 0.89 m/s, 180° | - | - |
| 1777850325 | 14.44° C | 46% | 1018.2 hPa | 0 mm | 0 m/s | - | - |
| 1777849724 | 14.44° C | 45% | 1018.3 hPa | 0 mm | 1.79 m/s, 210° | - | - |
| 1777849125 | 14.44° C | 46% | 1018.2 hPa | 0 mm | 2.24 m/s, 215° | - | - |
| 1777848524 | 15° C | 44% | 1018.2 hPa | 0 mm | 2.68 m/s, 232° | - | - |
| 1777848085 | 15° C | 45% | 1018.2 hPa | 0 mm | 2.24 m/s, 189° | - | - |
| 1777847957 | 15° C | 45% | 1018.2 hPa | 0 mm | 2.24 m/s, 189° | - | - |
| 1777847925 | 15° C | 45% | 1018.2 hPa | 0 mm | 2.24 m/s, 189° | - | - |
| 1777847324 | 15° C | 45% | 1018.2 hPa | 0 mm | 2.24 m/s, 230° | - | - |
| 1777846725 | 15° C | 45% | 1018.2 hPa | 0 mm | 2.24 m/s, 179° | - | - |
| 1777846125 | 15.56° C | 45% | 1018.1 hPa | 0 mm | 0.45 m/s, 204° | - | - |
| 1777845525 | 15° C | 43% | 1018 hPa | 0 mm | 0.89 m/s, 191° | - | - |
| 1777844924 | 15.56° C | 44% | 1018.1 hPa | 0 mm | 1.34 m/s, 221° | - | - |
| 1777844326 | 15.56° C | 42% | 1017.9 hPa | 0 mm | 0 m/s | - | - |
| 1777843724 | 15.56° C | 44% | 1017.8 hPa | 0 mm | 0 m/s | - | - |
| 1777843125 | 16.11° C | 42% | 1017.7 hPa | 0 mm | 2.68 m/s, 214° | - | - |
| 1777842524 | 16.11° C | 41% | 1017.5 hPa | 0 mm | 3.58 m/s, 223° | - | - |
| 1777841925 | 16.67° C | 43% | 1017.5 hPa | 0 mm | 3.13 m/s, 217° | - | - |
* Rain latest hour (hover to see other rain measurements)
** Current wind speed in m/s (hover to see current wind gust speed)